Погода в Кингисеппе

Поиск расширенной информации на нашем сайте:

Полезная информация:

Новости сайта



02.01.2020
Опубликован Долгосрочный прогноз погоды по городам России и ближнего зарубежья на январь 2020 года.
Карты: Прогноз на январь и февраль 2020 года, Сравнение прогнозируемой аномалии приземной температуры воздуха на январь 2020 года по разным моделям.




Погода в Кингисеппе - сегодня

Время (UTC), дата Ветер
(°,м/с) 
Видим.   Явления Облачность Т
(°С)
Тd
(°С)
f(%) Тe
(°С)
Pmin
(гПа)
dP
(гПа)
Po
(мм)
O2
(г/м3)
Тmin Tmax R s Состояние
почвы
15 29.11.20 070 (В) 10 км    9/8 1080 м средняя 
[Sc|Ac trans]
-0.9 -2.8 87 -2  1027.9  -1.4  769  311           
18 29.11.20 090 (В) 10 км    10/10 420 м 
[St]
-0.6 -2.6 86 -1  1026.6  -1.3  768  310    -0.2       
21 29.11.20 080 (В) 10 км  в посл. час ливневой снег  10/10 330 м 
[St]
-0.6 -2.2 89 -1  1025.2  -1.4  767  310           
00 30.11.20 080 (В) 4000 м  слаб. ливневой снег  10/10 400 м кучево-дожд. 
[Cb cap]
-0.3 -1.7 90 -1  1023.4  -1.7  766  309           
03 30.11.20 100 (В) 4000 м  слаб. ливневой снег  10/10 300 м кучево-дожд. 
[Cb cap]
-0.1 -1.1 93 -1  1021.9  -1.5  765  308  -0.9    0.0     
06 30.11.20 140 (ЮВ) 10 км  в посл. час ливневой снег  10/10 330 м 
[St]
+0.7 -0.1 94 -1  1021.3  -0.6  764  307  -0.7    0.1  <0.5  мокрый или
старый снег
50-90% 
09 30.11.20 140 (ЮВ) 10 км  {ливн. осадки}  10/10 870 м кучево-дожд. 
[Cb cap]
+0.8 -0.1 94 -1  1021.4  0.1  764  307           
12 30.11.20 140 (ЮВ) 20000 м  {ливн. осадки}  8/8 1020 м кучево-дожд. 
[Cb cap]
+0.6 -1.2 88 -1  1020.1  -1.3  763  307           
15 30.11.20 130 (ЮВ) 10 км    10/10 800 м 
[Sc]
+0.3 -1.5 88 1019.2  -0.9  763  307      0.2     
18 30.11.20 120 (ЮВ) 10 км    8/6 1000 м средняя 
[Sc|Ac trans]
-0.4 -1.8 90 -1  1018.3  -0.9  762  308    +1  0.1     
21 30.11.20 130 (ЮВ) 10 км  {ливн. осадки}  10/10 660 м 
[Sc]
-0.4 -1.5 92 -1  1017.5  -0.8  761  307           
00 01.12.20 160 (Ю) 10 км  в посл. час ливневой снег  10/10 600 м 
[Sc]
+0.1 -0.9 93 -1  1017.4  -0.1  761  307           
03 01.12.20 210 (ЮЗ) 10 км    10/10 800 м 
[Sc]
+0.1 -0.9 93 -1  1018.7  1.3  762  307  -0.5    0.0     
06 01.12.20 180 (Ю) 10 км  в посл. час ливневой снег  9/9 330 м 
[St]
+0.1 -1 92 -1  1020.4  1.7  763  308  -0.5    0.0  <0.5  равномерный
сухой снег
100% 
09 01.12.20 210 (ЮЗ) 20000 м    10/10 360 м 
[St]
+1.6 +0.4 92 -1  1022.5  2.1  765  306           
12 01.12.20 200 (Ю) 20000 м    10/10 360 м 
[St]
+1.9 +0.3 89 1024.2  1.7  766  307           
15 01.12.20 210 (ЮЗ) 10 км    10/10 360 м 
[St]
+1.8 +0.3 90 +1  1026  1.8  768  307      0.0     
21 01.12.20 220 (ЮЗ) 10 км    10/10 540 м 
[St]
+2.2 +0.6 89 +2  1029.1  1.5  770  308           
00 02.12.20 200 (Ю) 10 км    10/3 600 м средняя 
[Sc|Ac und]
+1.4 -0.2 89 +1  1030.8  1.6  771  309           
03 02.12.20 220 (ЮЗ) 10 км    9/9 480 м 
[St]
+0.5 -1.3 88 1031.7  0.9  772  311  +0.4         
06 02.12.20 200 (Ю) 10 км    10/10 270 м 
[St]
-0.6 -1.6 93 -1  1032.1  0.4  772  312  -0.9         
09 02.12.20 190 (Ю) 20000 м    10/10 400 м 
[St]
-0.3 -2.3 86 -1  1033  0.9  773  312           
12 02.12.20 190 (Ю) 20000 м    10/10 450 м 
[St]
-0.3 -2.8 83 -2  1032.2  -0.8  772  312           
15 02.12.20 170 (Ю) 10 км    10/10 400 м 
[St]
-0.9 -3.1 85 -2  1031.5  -0.7  772  312           
18 02.12.20 180 (Ю) 10 км    10/10 300 м 
[St]
-1.8 -3.3 89 -4  1030.9  -0.6  771  313    -0.1       
Время (UTC), дата Ветер
(°,м/с) 
Видим.   Явления Облачность Т
(°С)
Тd
(°С)
f(%) Тe
(°С)
Pmin
(гПа)
dP
(гПа)
Po
(мм)
O2
(г/м3)
Тmin Tmax R s Состояние
почвы

Для получения пояснительной информации подведите курсор к названию столбца.

ПОГОДА в Кингисеппе - архив

Всё, что Вы хотите узнать о погоде в Кингисеппе - удобно и подробно!

Выберите нужную дату (начиная с 1 января 2019* года) и нажмите кнопку "Найти".
Будут отображены архивные сводки погоды по пункту Кингисепп, начиная с указанной даты.


Отображать данные в формате CSV (для использования в таблицах Excel)


Внимание! Наш архив погоды предназначен исключительно для личного некоммерческого использования в познавательных целях. Если Вам необходимы официальные справки о состоянии погоды (для производственных, юридических, коммерческих и т.п. целей), обращайтесь в органы Росгидромета.

*Примечание: данная дата относится к архиву по метеостанциям СССР (Россия, СНГ, Балтия).
Архив по метеостанциям Зарубежной Европы и Азии (кроме Китая) хранится 10 дней, по другим регионам земного шара (Китай, Африка, Америка, Австралия, Океания) - 1 день.

Кингисепп - район местоположения метеостанции


Название, широта, долгота, высота метеостанции:
Кингисепп 59.4°ш. 28.6°д. 19 м над ур. моря [Российская Федерация]

Дополнительная информация

В oтличие oт бoльшинства пoгoдных сайтoв мы публикуем пoдрoбную метеoинфoрмацию в детальнoм прoфессиoнальнoм фoрмате.

Характеристики температуры и влажнoсти вoздуха измеряются на высoте 2 м в тени вдали oт зданий и деревьев.
Скoрoсть ветра измеряется на высoте 10 м (на урoвне рoста челoвека скoрoсть ветра ниже в 1.5-2 раза). Если метеoстанция нахoдится в гoрoде или в лесу, тo скoрoсть ветра занижена на 2-4 м/с пo сравнению с oткрытым местoм. Скoрoсть ветра над акватoриями крупных рек и oзёр, а также на вершинах хoлмoв на 2-5 м/с выше, чем в oбычных услoвиях.
Атмoсфернoе давление в разных тoчках местнoсти мoжет значительнo oтличаться oт давления на метеoстанции, в зависимoсти oт услoвий рельефа (при пoдъёме на 10 м давление пoнижается примернo на 1 мм рт.ст.).